Tracking 31027 objects as of 19-Jul-2025
HD Live streaming from Space Station
objects crossing your sky now

ONEWEB-0058

Track ONEWEB-0058 now!
10-day predictions
ONEWEB-0058 is classified as:


NORAD ID: 45161
Int'l Code: 2020-008AG
Perigee: 1,227.3 km
Apogee: 1,230.4 km
Inclination: 87.9 °
Period: 109.9 minutes
Semi major axis: 7599 km
RCS: Unknown
Launch date: February 6, 2020
Source: United Kingdom (UK)
Launch site: TYURATAM MISSILE AND SPACE COMPLEX (TTMTR)
Your satellite tracking list
DMSP 5D-2 F13 DEB
Track 1 satellite(s)




NASA's NSSDC Master Catalog

Two Line Element Set (TLE):
1 45161U 20008AG  25199.45203441 -.00000663  00000-0 -19365-2 0  9999
2 45161  87.8813 102.8499 0002032  77.3855 282.7499 13.10372524264718
Source of the keplerian elements: AFSPC